[ブラックフライデー情報 11/26~27]定時クーポン情報 Leeco Le 2 X520が$107.99など

セール情報

スポンサーリンク

イケてる最安価格は太字の製品です。個別エントリでも書いたMi Notebook Pro、Leeco X520は注目の最安製品。定時クーポンは世界共通なのでほしい方は時間まで張っている必要があります。

開始時刻製品名クーポン適用価格($)限定数
2017/11/26 00:00Original Xiaomi Power Bank 2CBfriday270$21.99200
2017/11/26 00:00Elephone ELECAM Explorer S 4K Action CameraBfriday271$35.99100
2017/11/26 00:00Original Meizu EP51 Bluetooth HiFi Sports EarbudsBfriday272$19.99100
2017/11/26 01:00Xiaomi Mi Notebook Pro Fingerprint Recognition- CORE I5 8GB + 256GBBfriday273$839.9950
2017/11/26 01:001pc All-in-one Pocket Multifunction Tool Ballpoint PenBfriday274$2.88500
2017/11/26 02:00Xiaomi Redmi 4A 4G Smartphone - INTERNATIONAL VERSIONBfriday275$89.99100
2017/11/26 02:00Xiaomi 26L Travel Business Backpack 15.6 inch Laptop BagBfriday276$31.99100
2017/11/26 03:00Chuwi SurBook Mini 2 in 1 Tablet PC Bfriday277$245.99100
2017/11/26 03:00Original Xiaomi 0.5mm Sign Pen goldBfriday278$2.99500
2017/11/26 05:00Cf007 Waterproof Smart Fitness Bracelet Tracker Heart Rate Blood Pressure Monitor Passometer Smart Band Watch Wristband Bfriday279$18.99200
2017/11/26 05:00LETV LeEco 2 X520Bfriday280$107.99100
2017/11/26 11:00Portable Adjustable 4 - 14 inch Pad Stand Holder Bracket - WHITEBfriday281$1.99200
2017/11/26 11:00Vernee Thor 4G Smartphone - GRAYBfriday282$84.99100
2017/11/26 17:0025 in 1 Screwdriver Wallet Kit Repair Tools - SILVER+GOLDENBfriday283$1.59200
2017/11/26 17:00Mecool M8S PRO W TV BoxBfriday284$25.99100
2017/11/26 21:00NO.1 F3 Sports SmartwatchBfriday285$14.99300
2017/11/26 21:00HK3600 2.4G Wireless Keyboard / Mouse Combo with Numeric Keypad Bfriday286$11.99100
2017/11/26 22:00TPE Wristband for Xiaomi Mi Band 2 Bfriday287$0.99200
2017/11/26 22:00MAZE Alpha 4G Phablet Bfriday288$154.99100
2017/11/26 23:00Zidoo X10 Android TV Box Bfriday289$164.9950
2017/11/26 23:00Xiaomi WOWSTICK 1fs 19 in 1 Electric Screwdriver SetBfriday290$19.99200
2017/11/27 00:00Hoard 8PCS 3D Christmas Scenario Cookie Cutter Mold SetBfriday291$1.99300
2017/11/27 00:00Vernee Mars Pro 4G PhabletBfriday292$175.9950
2017/11/27 01:00Movie Machine Style ABS Keyring Pendant Decoration Key ChainBfriday293$0.10300
2017/11/27 01:00CHUWI Hi10 Plus Tablet PC - WITH KEYBOARDBfriday294$148.9950
2017/11/27 02:00AUSTINBEM Men Zipper Nylon Swimming Boxers Bfriday295$2.99500
2017/11/27 02:00UMIDIGI Z Pro 4G PhabletBfriday296$183.99100
2017/11/27 03:00Cube thinkerBfriday297$569.9950
2017/11/27 04:00RZ001 OLED Display Fingertip Pulse Oximeter SpO2 Oxygen Monitor for Healthcare Home Use - COLORMIXBfriday298$5.99300
2017/11/27 04:00NO.1 F3 Sports SmartwatchBfriday299$16.99300
2017/11/27 05:00ASUS Zenfone 4 Max Plus 4G Phablet -Bfriday300$158.89100
2017/11/27 05:0022mm Smart Watch Band for Xiaomi HUAMI AMAZFIT - GREEN Bfriday301$1.99200
2017/11/27 11:00Hubsan X4 H502S 720P 5.8G FPV Drone - WHITEBfriday302$109.99100
2017/11/27 11:00SUNVELL T95D TV Box - 1+8G EU BLACK Bfriday303$18.99100
2017/11/27 17:00MIXZA TOHAOLL Ocean Series 128GB Micro SD Memory Card - 128GB COLORMIXBfriday304$34.99100
2017/11/27 17:00Original XiaoMi USB Type-C Male to Micro USB Female Connector - BLACKBfriday305$0.78500
スポンサーリンク

Leave a reply

各端末の最新クーポン価格はクーポンページを参照ください。メニューからアクセスが可能です。すべてのリセラーにおいて、クーポン適用が可能になるのは、登録アカウントへログインした後です。
プラスエリア化作業を実施する場合は必ずTWRP等カスタムリカバリを導入し、EFSのバックアップを取得してから実施ください。